User: anonymous   Login
Location: Dead Woman Crossing
(43.5369°N, 106.3228°W)
Time: 14:44:07
(UTC+00:00)
Language:

BEESAT 3 - Orbit

View from above orbital plane
View from above orbital plane
View from above satellite
View from above satellite

Ground track
Ground track

The orbit data is extracted from the following two-line orbital elements,

1 39134U 13015E   22175.89085049  .00008804  00000-0  31589-3 0  9999
2 39134  64.8629  37.4805 0034901 278.5718  81.1460 15.28697156507999
Epoch (UTC): 24 June 2022 21:22:49
Eccentricity: 0.0034901
inclination: 64.8629°
perigee height: 456 km
apogee height: 503 km
right ascension of ascending node: 37.4805°
argument of perigee: 278.5718°
revolutions per day: 15.28697156
mean anomaly at epoch: 81.1460°
orbit number at epoch: 50799

The dashed part of the orbit path shows where the satellite is in the earth's shadow,  

DLR